Погода в Новых Пичингуши

Россия / Республика Мордовия     54°34′02″N   43°41′54″E
темп.,
°C
ветер,
м/с
пор.,
м/с
влажн.,
%
обл.,
%
осадки,
мм/ч
давл.,
гПа
погр.,
м
4 августа, ср
ср400:00+19з338962 1.1 101137
03:00+17зсз3490100 1.1 101274
06:00+17зсз3689100 0.3 1012203
09:00+20сз3573100 0.3 1013419
12:00+25сз5642100 0.0 10131857
15:00+26сз45355 0.0 10142417
18:00+23сз474719 0.0 1014426
21:00+18ссз235910 0.0 101526
5 августа, чт
чт500:00+18сз3459100 0.0 101693
03:00+16сз226498 0.0 101726
06:00+16сз236629 0.0 101799
09:00+21сз33475 0.0 1018575
12:00+24сз22380 0.0 10171993
15:00+25зсз33338 0.0 10172439
18:00+24ссв1145100 0.0 101629
21:00+19вюв36576 0.0 101796
6 августа, пт
пт600:00+17юв3561100 0.0 101769
03:00+16ююв3363100 0.0 101746
06:00+17ююв3564100 0.0 1018123
09:00+22ю454853 0.0 1017536
12:00+25ю344145 0.0 10171351
15:00+26ю3439100 0.0 10161065
18:00+25юв374899 0.0 1015311
21:00+21юв51156100 0.0 1015215
7 августа, сб
сб700:00+19юв5125966 0.0 1015275
03:00+17ююв4135873 0.0 1015286
06:00+19ююв51152100 0.0 1016300
09:00+20ююв4850100 0.1 1016328
12:00+24ю574232 0.0 1017539
15:00+27ююв57365 0.0 1016765
18:00+26ююв364551 0.0 1016234
21:00+21ююв455963 0.0 101769
8 августа, вс
вс800:00+19юв48616 0.0 1017118
03:00+18юв476348 0.0 1018115
06:00+18юв3960100 0.0 1018193
09:00+25ююв5742100 0.0 1019478
12:00+29ююв563497 0.0 1019998
15:00+31ююв563095 0.0 10181812
18:00+28ююв3641100 0.0 1018187
21:00+22юв455995 0.0 101972